Wind_Speed
3 3 3 3 3 2 3 2 2 2 2 2 2 2 2 2 2 2 2 1 1 1 1 1 2 4 5 6 8 9 11 11 8 6 4 2 1 4 4 3 4 4 4 3 3 3 3 4 5 4 2 2 3 1 1 2 1 1 1 1 1 2 1 2 5 3 2 5 4 2 1 2 1 1 1 2 3 2 3 1 6 7 7 7 5 6 7 10
2 3 3 3 3 3 4 3 2 3 3 3 3 3 3 3 2 2 2 1 1 1 1 1 2 4 5 7 9 9 11 10 4 5 5 3 3 5 4 4 5 5 4 3 2 2 2 3 3 2 2 1 1 1 1 1 2 0 0 0 1 2 1 0 3 3 1 3 4 2 1 2 2 1 1 2 2 1 2 2 8 7 7 7 7 8 8 10
1 2 2 3 3 4 4 3 3 4 4 3 3 3 3 3 2 2 2 1 1 1 1 2 3 4 5 7 7 9 11 7 0 3 5 4 5 5 4 5 5 5 4 3 3 3 3 4 3 1 1 1 2 1 0 2 2 0 1 1 2 2 0 1 2 2 1 2 1 2 2 3 1 0 2 3 4 2 1 2 5 5 4 5 6 8 9 9
1 1 1 2 3 4 4 4 4 4 4 4 4 3 3 2 2 1 1 1 1 2 2 3 4 4 4 5 6 8 9 4 2 1 2 4 4 5 5 5 5 4 3 3 4 5 5 5 4 2 0 2 2 0 1 3 2 1 1 1 4 2 1 3 3 1 1 1 1 1 2 3 0 1 3 3 6 2 5 3 2 2 4 4 5 6 8 9
2 2 2 2 3 4 4 5 5 5 4 4 4 4 3 2 2 2 2 1 2 3 3 3 4 4 3 3 3 6 7 3 2 1 2 3 4 5 6 6 5 4 3 4 5 6 5 3 2 2 1 1 1 0 1 3 2 1 1 3 4 2 1 4 3 2 2 1 1 1 2 1 1 2 4 5 7 1 3 4 5 5 5 4 5 5 7 9
3 3 3 3 3 4 5 5 5 5 5 4 4 4 3 2 2 2 2 2 3 3 3 3 3 3 2 2 2 3 4 2 2 4 3 4 3 5 6 6 4 4 3 4 6 5 4 2 0 1 1 1 1 1 2 1 2 1 1 1 2 2 1 3 4 4 3 3 4 3 1 1 2 4 3 6 6 2 4 4 5 6 5 4 5 6 7 9
5 4 4 4 4 5 5 5 6 5 5 4 3 3 3 2 2 2 2 2 3 3 3 2 2 2 1 1 2 2 1 2 2 6 4 3 3 3 5 5 4 4 3 4 5 3 2 1 1 2 1 1 0 1 2 0 1 2 1 3 2 2 3 1 3 4 5 5 3 1 0 4 6 3 1 4 1 6 5 5 6 6 6 5 6 8 8 8
6 5 4 5 5 5 5 6 6 6 5 4 3 2 2 2 2 2 2 2 2 2 2 2 2 2 1 1 1 1 1 1 2 5 5 3 4 4 5 5 5 4 4 4 4 3 3 2 2 3 1 2 1 3 2 1 2 2 1 3 2 2 5 3 3 4 6 6 2 2 4 7 6 1 2 3 5 7 5 6 6 5 6 7 8 8 7 8
8 6 5 6 6 6 6 6 6 6 5 4 4 3 3 2 2 2 2 2 1 2 2 2 2 1 1 2 1 2 1 1 2 4 4 4 5 6 6 5 5 4 4 5 5 5 4 2 3 3 1 3 2 2 1 3 1 1 0 1 2 3 4 3 5 6 5 4 4 5 8 6 2 1 3 3 7 6 6 6 4 5 7 7 7 7 7 7
9 8 7 7 7 7 6 6 6 6 5 5 4 4 4 3 3 2 2 2 1 1 1 1 1 1 2 3 1 3 1 2 3 3 3 4 5 6 6 5 4 4 5 5 5 5 3 2 4 3 1 3 2 1 0 2 1 1 0 2 5 4 3 3 4 3 3 3 6 7 6 2 3 1 3 5 8 7 7 6 5 6 7 6 5 5 6 7
10 9 7 7 7 7 7 7 6 7 6 5 5 5 4 3 3 2 2 1 1 1 1 1 1 1 2 3 3 3 2 3 3 3 3 4 5 6 6 5 4 5 6 5 5 5 1 4 7 3 0 3 4 2 1 1 1 1 2 5 5 5 4 4 3 1 1 2 6 7 3 2 3 2 0 6 8 6 7 7 5 5 5 4 4 4 5 7
10 10 9 7 7 7 7 7 6 7 6 5 5 5 4 3 3 2 2 1 1 1 1 1 1 2 2 2 4 3 3 4 3 3 4 4 5 6 6 5 5 5 5 4 5 5 2 8 10 3 1 3 4 1 1 1 1 1 2 5 6 6 5 1 1 0 1 1 3 5 3 3 5 3 4 6 7 6 6 5 4 4 3 3 4 4 4 6
11 12 12 8 7 8 7 7 7 6 5 5 5 5 4 3 2 2 1 1 1 1 1 1 2 3 2 2 3 4 6 5 4 3 4 5 5 5 5 5 5 5 4 4 6 6 5 8 6 3 2 2 1 1 3 3 1 1 0 3 6 7 2 2 1 1 1 1 3 4 4 3 6 5 5 5 7 7 6 4 3 3 2 2 3 3 4 5
12 13 14 10 8 8 8 8 6 6 5 5 5 4 3 2 2 1 1 1 1 1 0 1 3 4 2 2 1 4 7 6 5 5 5 5 6 6 6 5 5 5 4 4 7 6 6 8 6 5 2 2 2 4 3 2 1 2 1 1 2 4 0 3 2 2 1 2 3 4 5 1 5 6 5 4 6 6 5 4 3 2 2 2 2 3 3 5
13 13 14 11 8 9 9 8 7 6 5 5 4 3 2 2 1 1 1 1 0 1 2 3 4 3 2 3 2 3 5 6 7 7 6 7 7 6 6 7 6 6 5 6 8 9 8 8 6 4 2 2 3 4 1 1 0 1 3 3 1 2 1 2 2 3 2 1 2 5 5 1 5 7 5 2 5 5 5 4 3 2 3 1 2 2 2 4
14 14 15 13 9 9 9 9 8 6 4 6 4 2 2 1 0 1 2 1 2 3 3 3 5 3 2 2 1 2 4 5 7 8 9 9 7 6 9 9 9 8 8 9 11 11 8 6 2 1 1 2 4 4 2 2 2 1 3 4 2 2 2 1 2 2 3 1 1 4 4 1 3 7 5 2 4 6 5 4 3 2 2 1 2 2 2 3
15 14 15 13 10 9 8 8 7 5 4 6 3 2 2 2 2 3 3 4 4 4 3 4 6 2 3 1 1 3 3 5 7 8 10 10 8 10 12 8 7 8 10 10 8 6 4 3 1 1 1 1 3 3 3 5 5 2 2 4 3 4 3 2 2 2 2 2 2 2 5 3 3 7 5 3 3 6 6 5 4 3 2 2 2 2 2 2
16 14 15 12 9 9 9 7 6 5 4 4 1 2 3 3 3 3 5 6 6 5 3 4 5 2 4 3 2 2 4 5 7 8 9 9 10 12 10 6 5 8 9 6 2 1 1 1 1 2 2 2 4 5 6 4 3 1 3 3 3 4 5 5 2 1 1 3 4 3 7 8 4 8 6 2 3 6 5 4 4 4 3 2 2 2 2 2
16 16 16 11 9 9 9 9 7 5 3 2 2 4 5 3 2 3 5 5 4 3 1 4 5 2 1 2 2 4 6 7 8 7 9 10 11 10 7 7 6 5 6 4 3 2 1 2 2 4 5 7 8 10 9 2 3 1 2 2 4 5 5 3 1 1 2 4 7 8 10 11 7 9 9 4 4 5 5 4 4 4 4 3 2 2 2 2
19 20 17 11 9 9 10 10 7 6 5 4 3 4 3 2 2 2 4 4 6 3 1 4 7 1 1 2 5 8 8 7 4 5 10 12 12 10 6 5 4 2 4 3 3 2 1 3 6 7 5 7 11 11 6 3 4 2 1 2 4 6 6 1 3 1 1 4 8 7 10 13 11 10 8 7 4 6 6 6 6 5 5 4 3 3 2 2
20 20 16 12 10 9 10 9 7 7 6 4 3 3 2 2 3 1 2 5 9 7 3 3 4 3 1 4 9 11 6 3 2 4 11 12 12 9 4 4 5 5 3 2 3 2 2 6 10 7 2 4 9 9 4 2 2 2 3 4 5 6 7 1 3 1 1 3 6 3 7 13 14 12 5 8 7 8 8 8 7 7 6 4 4 4 3 3
22 20 15 13 11 10 10 8 8 8 6 5 5 5 4 2 1 1 0 4 6 9 8 3 2 5 2 4 10 10 3 3 3 5 11 11 8 6 5 6 7 5 4 4 4 2 4 9 10 3 6 4 3 6 7 6 5 4 3 4 5 4 5 2 2 1 2 4 4 1 6 12 13 12 5 7 7 5 3 4 4 5 6 5 5 5 5 4
23 20 17 15 13 12 11 9 10 9 9 9 7 6 3 1 2 3 0 3 3 4 6 5 6 8 6 4 8 11 6 6 6 7 13 12 5 3 6 9 7 5 6 9 8 5 5 7 5 6 7 6 4 5 8 6 5 6 4 5 6 3 2 4 1 3 2 2 3 3 7 10 12 13 6 6 4 3 2 2 2 3 4 5 5 4 5 6
24 23 19 17 15 13 11 11 11 11 12 12 12 11 4 2 4 2 1 3 3 2 3 5 5 7 8 5 10 14 8 5 4 7 16 15 6 3 6 7 6 5 8 12 11 10 6 0 2 6 8 8 5 5 8 6 6 7 7 8 8 5 6 7 0 2 3 3 2 4 8 9 10 12 6 4 3 3 3 4 4 4 4 4 4 4 5 5
25 25 20 19 16 12 12 12 12 13 12 12 15 15 9 4 3 1 1 3 4 2 1 5 5 6 8 7 12 12 4 4 3 4 16 15 7 6 4 3 4 8 10 10 8 10 6 3 6 7 7 8 7 6 9 9 6 5 8 12 12 10 8 5 0 1 5 4 3 2 7 6 3 6 5 3 3 5 4 5 6 5 5 5 5 6 5 4
27 25 21 22 19 14 12 8 12 14 11 13 15 11 11 9 4 2 1 3 5 3 2 5 6 7 9 8 10 8 1 5 0 4 13 11 4 4 3 3 1 5 7 7 3 5 3 4 5 6 7 9 8 7 8 8 6 4 4 10 13 11 6 5 4 3 5 3 1 1 6 5 3 4 3 3 4 5 5 6 7 6 5 6 5 5 6 5
29 27 24 24 22 20 13 5 11 15 9 11 13 11 12 12 8 3 1 4 6 4 5 2 2 5 8 5 7 8 3 3 4 4 5 5 4 2 3 7 4 1 4 4 3 2 4 5 4 5 6 7 7 6 7 9 7 3 1 4 9 9 8 8 7 6 4 2 1 3 4 6 7 5 2 3 4 6 7 8 7 7 6 6 6 5 6 6
31 30 27 25 25 26 17 6 12 16 12 7 7 14 14 12 11 4 1 5 4 4 4 1 1 3 4 3 3 4 0 1 4 2 2 2 2 1 4 8 7 6 5 5 6 1 3 7 8 9 7 6 6 2 7 12 7 0 3 2 4 4 5 6 6 6 2 2 4 6 4 5 8 3 3 2 5 9 9 11 10 9 9 9 8 7 7 6
31 31 29 27 26 28 22 11 11 14 18 12 6 14 17 13 9 1 0 5 2 4 2 2 4 2 4 5 2 2 2 2 1 1 2 2 2 1 3 4 4 7 4 3 5 1 2 3 4 8 7 6 3 4 3 9 5 3 5 5 6 4 3 3 3 3 2 4 8 9 10 6 7 4 4 2 4 8 6 8 11 11 11 10 9 8 7 6
32 31 31 29 26 29 26 16 13 11 15 15 10 15 18 10 5 3 4 6 1 3 2 2 3 2 8 10 2 1 2 2 2 3 2 2 2 3 0 1 3 5 2 3 3 1 2 1 1 3 4 2 5 6 3 0 2 6 7 6 6 4 3 2 1 1 3 6 7 9 13 10 7 3 7 4 1 2 4 6 9 10 11 11 9 8 7 6
34 32 32 31 29 32 25 16 18 14 9 13 14 18 14 3 1 5 7 3 1 2 3 3 2 4 12 11 4 4 3 2 3 6 5 4 3 3 3 3 3 3 2 4 4 1 2 2 1 1 0 3 6 5 4 3 2 4 4 4 4 2 2 2 2 2 6 6 1 2 7 11 9 4 4 2 2 3 2 5 10 13 12 11 9 8 8 7
37 34 34 33 31 34 26 19 23 17 8 15 20 14 7 2 2 8 6 2 1 5 5 4 3 7 11 6 2 5 4 2 5 6 5 5 6 7 7 6 6 4 4 7 5 1 2 4 2 1 0 2 5 5 4 2 2 3 4 6 5 3 3 4 3 4 7 4 2 2 2 6 9 7 7 4 3 3 1 1 5 11 13 11 10 9 8 7
40 37 36 35 34 36 31 25 26 21 15 20 17 4 2 5 9 11 8 4 2 1 4 4 3 6 9 6 4 6 3 2 6 4 2 3 5 7 5 2 4 2 2 5 5 3 3 2 3 4 2 4 9 8 5 4 5 7 8 8 8 5 4 5 4 3 5 1 2 1 3 4 5 6 8 5 3 3 3 3 1 5 11 11 11 10 8 7
43 40 40 39 37 38 34 28 28 27 22 19 10 3 5 9 12 11 11 7 1 2 3 4 6 6 7 4 3 6 3 2 7 5 3 5 5 7 7 6 6 2 2 3 4 5 5 3 6 9 4 7 13 9 3 6 8 8 5 4 6 6 4 5 4 3 3 1 2 1 3 4 3 2 1 2 2 2 2 2 2 2 7 9 9 9 8 8
44 44 42 40 39 40 38 31 31 33 25 14 6 6 10 12 11 9 9 7 3 2 3 4 7 7 6 2 0 5 3 2 7 6 5 7 6 7 8 8 10 6 4 5 3 4 5 4 3 3 1 8 12 4 3 6 6 4 1 1 5 4 2 1 1 0 1 1 2 4 3 4 2 2 2 1 1 2 2 2 3 4 7 9 9 9 9 8
44 43 39 38 38 42 42 35 35 36 24 10 6 8 11 13 8 4 6 7 5 7 8 4 4 5 5 3 3 6 2 0 7 6 4 5 5 5 5 5 11 12 9 7 3 3 3 2 2 2 0 4 4 1 3 2 4 4 3 5 3 1 2 1 1 2 1 5 3 5 5 3 1 2 3 3 3 4 4 3 5 6 8 10 9 10 10 9
41 37 32 33 38 43 45 41 40 36 19 7 8 10 11 10 5 5 6 6 6 10 10 5 6 7 7 5 5 8 4 2 6 6 4 4 4 7 7 5 9 16 14 7 2 3 3 1 2 2 2 2 2 1 3 2 1 5 5 6 3 1 1 2 4 1 2 7 3 5 8 6 5 3 3 4 5 7 7 6 6 6 9 11 11 11 11 10
38 28 21 30 40 44 47 45 42 29 10 5 11 13 12 9 6 6 4 4 7 10 9 8 7 7 7 7 6 9 9 6 8 7 5 5 4 8 12 6 8 16 16 6 0 2 3 3 1 1 1 2 1 3 4 1 1 1 2 3 3 3 4 4 5 3 4 7 4 4 7 6 7 5 5 7 9 10 10 7 7 9 11 12 11 12 12 11
29 14 10 29 41 43 49 48 34 17 4 6 12 13 11 7 6 5 4 4 5 8 10 9 7 5 6 7 5 9 11 8 9 8 6 6 4 7 13 8 7 13 14 9 3 1 2 4 2 1 1 3 3 5 7 6 3 1 1 3 1 3 3 4 3 2 4 5 4 3 3 5 7 8 10 13 12 11 11 9 9 12 12 12 12 12 12 11
18 6 6 27 42 44 49 41 20 8 6 8 11 9 6 5 5 4 5 6 4 4 8 9 8 6 4 5 3 6 8 7 9 8 6 7 6 5 10 9 5 7 8 7 4 1 3 4 3 2 1 3 5 7 9 10 9 6 6 8 5 2 1 2 3 2 2 4 4 4 5 4 4 4 9 12 9 8 10 10 10 10 12 12 12 12 11 11
12 6 6 30 49 48 40 22 8 8 8 9 13 12 6 3 5 5 4 6 5 3 3 5 9 7 4 5 4 4 6 6 8 7 5 8 8 4 9 11 8 9 8 4 5 5 4 3 4 4 4 6 4 1 2 4 6 7 9 11 11 8 5 4 6 3 2 4 3 3 5 3 3 1 2 3 2 2 5 7 7 9 11 11 10 11 12 11
7 7 10 38 57 49 28 8 5 9 8 10 14 12 4 3 5 7 6 5 5 3 1 3 7 7 5 7 6 6 7 6 8 8 5 8 11 7 7 11 11 14 11 5 5 5 3 2 3 3 3 4 1 3 2 4 2 2 4 6 8 8 8 8 7 3 3 3 1 1 4 2 2 1 1 0 1 1 2 4 6 7 9 9 10 11 11 10
6 5 16 47 63 45 18 7 9 9 9 13 13 8 5 5 8 9 8 9 8 5 5 5 6 8 7 5 5 7 9 6 9 11 6 6 9 5 5 10 13 13 9 4 4 4 3 2 5 3 1 1 1 0 0 2 1 4 6 5 5 7 6 4 2 2 4 5 3 3 5 3 1 1 1 1 2 2 3 5 6 6 6 9 11 11 11 10
5 2 9 41 62 43 13 8 13 12 13 14 13 11 9 6 9 12 13 15 11 7 10 9 5 6 5 4 5 8 11 8 9 11 7 5 5 1 4 12 15 12 7 4 6 8 5 4 5 4 3 2 2 3 4 3 4 5 5 5 6 7 4 1 1 1 5 6 9 7 7 3 3 2 1 1 2 4 4 4 5 4 4 7 9 9 10 9
4 1 3 18 38 30 12 12 15 14 16 16 15 18 15 7 8 14 16 17 13 10 10 8 5 5 4 4 4 6 11 10 7 7 6 4 3 1 1 8 12 8 3 1 6 10 6 4 8 8 8 8 7 7 6 5 5 3 3 7 10 12 11 5 2 5 6 6 10 10 7 2 3 0 2 2 2 4 4 3 4 4 4 6 7 9 10 10
3 3 0 4 10 10 9 12 13 12 15 17 14 16 20 15 7 7 12 15 13 12 8 3 4 6 5 7 8 9 13 10 3 3 6 5 3 0 1 4 6 3 0 3 8 9 3 3 10 13 12 10 5 3 3 8 9 8 9 11 12 14 14 9 4 7 6 4 7 12 8 4 4 5 5 4 3 5 5 4 5 5 5 6 7 8 9 8
3 3 5 4 2 4 5 7 11 11 14 17 12 10 19 21 10 4 8 11 11 12 8 1 6 11 11 13 13 10 10 9 4 4 5 3 2 2 2 2 2 1 2 3 6 6 2 6 13 15 16 9 1 1 4 9 11 14 14 14 13 12 14 13 12 9 6 4 9 8 9 10 10 10 9 7 6 6 5 5 6 6 6 6 6 8 9 8
3 2 4 3 1 5 7 7 12 15 15 15 10 9 15 19 15 10 8 5 7 11 8 3 9 17 17 15 13 9 8 8 7 6 4 3 3 3 2 1 1 1 3 2 2 2 3 7 9 11 15 9 2 1 4 5 6 9 13 16 15 15 16 17 16 11 8 10 11 6 11 15 10 11 10 8 9 9 7 6 6 5 5 7 8 9 11 12
2 1 1 0 1 4 4 4 10 16 17 14 10 10 13 17 19 14 6 3 5 10 11 11 13 15 14 13 12 10 11 11 10 9 7 5 5 4 3 2 1 1 3 3 2 1 3 4 3 6 10 9 3 2 3 4 3 3 8 12 13 15 16 15 17 15 13 16 12 5 8 14 6 9 9 8 8 7 4 4 4 5 7 8 10 10 12 13
2 0 1 2 1 1 1 1 7 12 13 12 10 10 11 14 18 13 6 6 8 8 10 15 16 14 13 13 11 11 13 14 12 10 10 9 6 5 5 4 3 2 3 4 3 2 3 3 3 4 5 7 6 4 2 3 4 4 7 10 9 9 8 9 13 13 11 14 11 4 8 11 4 8 7 5 5 4 4 6 7 8 8 10 10 10 11 12
1 3 1 3 2 1 0 1 3 7 10 10 10 10 10 14 16 11 5 4 6 6 9 15 17 11 10 13 14 15 17 14 11 9 12 12 10 8 6 5 7 7 5 5 4 4 4 3 3 4 7 7 6 8 6 2 0 7 14 13 11 9 8 10 12 11 10 12 12 10 10 10 4 6 4 3 4 6 8 9 8 7 8 10 11 10 10 10
2 4 3 2 3 1 1 1 2 5 5 4 6 8 9 12 13 11 5 1 1 1 3 10 13 9 8 13 17 15 11 7 4 4 6 6 4 4 4 6 9 10 8 7 4 4 7 5 3 6 8 4 2 6 7 4 1 9 14 13 15 14 11 11 11 12 13 11 10 11 11 9 3 4 5 4 5 8 10 9 7 7 8 9 9 8 8 8
Wind_Direction
172 182 192 198 200 195 195 209 206 195 197 188 193 197 201 212 210 215 225 228 233 240 240 304 327 346 357 357 352 350 346 337 338 358 4 318 232 168 144 120 137 138 131 128 142 141 109 75 55 71 101 67 7 342 89 34 2 254 230 195 182 155 165 178 163 159 100 117 132 106 332 295 317 136 131 202 205 229 275 178 96 82 79 83 68 23 8 22
175 191 197 204 206 202 203 209 196 193 194 187 195 191 195 204 202 210 200 196 218 222 244 331 340 351 355 353 351 348 340 332 348 40 30 38 126 144 136 119 136 142 136 139 150 167 147 95 68 77 101 89 358 344 178 357 329 279 143 264 151 129 86 138 150 144 124 102 120 132 202 283 318 1 358 274 212 176 284 142 132 127 112 95 59 35 26 32
176 190 197 203 208 205 204 208 192 182 189 191 189 183 189 198 198 208 209 211 254 303 320 337 347 351 351 350 347 345 337 322 67 40 34 76 105 122 128 125 135 140 139 145 139 136 130 111 103 96 78 71 36 343 199 13 326 254 228 283 110 134 71 192 205 184 144 85 139 153 165 263 292 334 308 304 292 226 156 109 153 161 115 88 53 32 24 35
206 212 221 225 221 217 214 211 195 188 197 192 185 181 178 186 203 230 248 264 302 315 329 337 343 344 346 346 341 346 332 292 162 49 55 87 97 111 115 117 133 136 131 144 128 116 117 103 83 51 63 96 56 287 37 18 334 148 284 33 102 161 186 157 205 215 168 214 279 130 189 255 63 302 281 287 293 231 132 59 21 52 61 69 55 32 25 35
224 241 246 250 242 228 221 214 203 199 199 192 188 185 186 202 236 265 290 309 307 312 326 325 333 335 335 340 339 345 323 286 138 149 122 98 103 110 112 118 134 132 137 156 128 112 116 97 76 60 45 89 62 189 81 23 342 153 51 44 105 187 178 126 157 170 155 173 204 214 254 268 94 246 245 248 276 304 94 36 36 57 62 59 47 34 33 39
229 242 243 248 250 238 228 218 210 202 196 193 195 197 209 228 251 273 297 316 309 310 317 318 331 330 334 350 342 340 306 294 149 188 144 117 122 114 123 128 135 135 153 167 141 126 112 86 137 121 67 77 22 43 84 40 317 275 113 113 169 205 235 123 150 170 165 186 205 232 287 124 205 248 229 241 266 53 60 39 63 71 73 66 51 47 45 44
245 250 247 247 245 244 238 221 213 207 198 197 201 211 232 253 273 288 307 313 309 307 315 325 340 339 4 31 7 32 292 285 201 196 178 168 173 144 140 141 149 146 156 167 157 155 131 150 167 141 127 112 153 116 91 67 252 280 133 162 193 201 241 182 148 170 185 214 215 153 240 212 227 248 205 221 153 86 87 75 78 80 80 73 61 53 47 46
244 251 249 252 250 247 240 225 217 210 201 205 209 222 243 263 279 293 305 306 309 307 316 335 1 20 70 106 28 8 261 247 189 193 200 209 200 184 164 160 171 160 176 186 181 175 164 183 153 177 200 87 179 150 124 234 188 240 205 147 155 206 239 236 207 205 206 229 210 163 235 237 229 223 220 191 116 105 108 87 83 87 79 66 57 50 45 43
241 259 261 254 252 247 237 221 216 209 201 211 216 228 243 255 270 280 293 303 305 304 332 354 15 58 124 105 70 289 254 159 178 198 205 204 200 190 175 172 182 184 194 191 190 184 184 196 159 198 186 96 188 149 155 250 189 195 177 157 219 239 248 240 240 227 213 222 175 201 241 236 189 158 227 154 118 123 113 90 77 79 66 54 47 44 44 42
240 258 264 256 251 248 236 213 209 211 210 216 222 234 241 246 260 267 284 292 289 301 337 351 17 132 174 139 176 269 188 140 175 191 190 188 188 185 182 179 182 201 195 177 181 178 191 198 151 176 120 103 176 136 204 269 32 65 334 267 254 268 269 223 238 234 207 211 187 217 253 191 105 225 231 120 127 139 116 94 72 78 72 57 49 45 41 43
240 254 263 257 248 247 234 214 208 213 215 219 232 240 238 239 251 257 266 278 284 298 342 48 95 163 156 168 227 251 169 170 181 170 173 178 180 180 183 187 191 207 191 172 181 176 182 160 141 143 174 136 153 139 260 278 56 32 311 279 254 263 261 219 237 258 210 208 190 215 253 113 134 227 141 105 140 152 120 104 86 91 96 92 78 59 44 42
234 250 262 255 244 245 236 220 214 218 218 223 239 239 231 231 242 254 255 268 280 295 342 85 155 166 148 213 240 226 185 187 180 174 179 176 179 176 181 193 192 198 194 182 180 174 144 152 150 120 52 161 160 149 158 136 2 8 321 299 289 278 264 191 94 196 212 175 163 199 225 185 187 184 90 109 151 152 130 115 102 103 105 105 87 76 63 46
225 240 256 257 242 240 238 224 217 225 223 232 247 233 223 231 240 257 265 286 290 321 3 161 168 160 194 259 219 213 213 198 182 175 176 171 170 171 176 184 176 172 186 187 172 163 148 156 153 83 82 177 155 114 135 128 290 239 187 311 305 289 264 87 51 285 241 144 151 213 249 200 174 154 98 119 160 162 153 129 116 119 94 90 79 78 75 55
225 237 250 254 245 239 236 223 218 231 234 243 248 223 217 230 231 259 289 303 301 277 224 164 168 162 212 259 192 218 215 203 200 184 175 172 159 149 148 151 154 153 153 162 161 155 150 146 125 103 88 349 111 138 146 134 272 285 263 230 287 290 203 101 50 316 276 135 162 228 263 249 148 146 106 117 168 183 188 151 137 130 93 80 80 77 79 64
223 236 250 251 244 243 231 213 213 226 237 252 242 210 200 201 232 306 277 289 47 160 142 144 165 159 249 258 225 227 207 200 204 195 188 177 160 139 134 136 128 126 122 128 138 134 134 138 126 119 99 22 152 167 200 215 125 350 274 239 187 254 256 101 70 348 322 107 173 229 258 295 149 152 111 97 190 209 216 164 134 129 108 92 94 83 87 81
222 226 246 251 245 242 222 203 208 210 242 254 228 186 183 179 175 131 129 122 132 136 130 147 151 153 272 249 174 209 201 199 201 200 194 178 173 149 132 125 110 107 109 108 115 115 110 113 97 37 113 162 182 183 236 256 232 159 250 263 241 232 279 357 100 38 339 336 192 231 261 332 138 158 125 95 198 207 210 175 149 154 135 127 127 96 99 99
230 221 235 245 243 233 208 197 199 190 249 248 207 161 177 150 144 145 129 128 128 114 119 136 126 143 252 188 192 221 182 191 190 189 188 178 176 154 134 115 97 105 107 104 111 110 74 62 100 247 127 170 183 178 231 252 243 192 199 258 262 236 256 278 142 93 345 270 232 231 254 265 142 159 158 112 179 204 200 183 173 174 167 150 139 111 107 99
231 233 239 238 238 228 200 195 193 183 243 250 175 140 147 137 140 147 155 143 115 99 108 126 125 217 234 173 184 161 125 159 165 166 176 168 162 154 137 115 118 125 117 111 114 116 16 39 220 225 161 181 182 184 215 244 268 194 189 243 268 239 234 247 244 76 24 265 258 245 251 257 197 171 182 136 168 211 201 180 180 180 175 161 148 131 99 83
218 231 240 232 239 232 195 192 192 180 216 243 158 127 114 108 128 159 170 155 147 179 197 168 173 236 246 156 125 108 113 137 146 154 157 151 154 147 122 116 124 135 141 164 178 145 183 145 177 230 211 198 192 202 218 233 40 92 181 255 276 269 255 232 206 17 9 277 262 255 261 267 237 195 190 162 169 203 190 170 183 185 177 173 154 133 105 87
214 220 228 220 238 235 193 190 189 179 202 226 178 137 132 162 186 200 183 199 225 232 14 175 186 216 58 129 130 128 123 127 135 159 157 153 150 134 103 109 113 139 171 184 157 138 231 202 211 228 213 194 199 209 217 75 76 109 183 257 261 269 275 201 121 51 31 269 262 258 268 273 266 239 193 156 171 193 193 191 192 187 178 179 159 137 126 100
218 217 215 207 228 227 189 185 186 183 202 222 198 189 225 207 203 221 181 222 234 236 260 200 204 269 203 134 153 152 134 128 114 157 164 160 156 155 152 157 164 177 186 114 107 117 211 221 229 226 145 165 205 205 183 146 168 204 240 253 256 253 265 232 122 80 103 246 261 261 270 266 267 261 184 149 194 203 202 204 195 184 175 169 160 150 143 120
221 215 203 197 218 213 183 185 194 188 202 220 220 239 279 282 187 50 77 251 241 225 233 216 238 259 216 145 170 167 159 173 156 171 172 163 173 193 168 167 193 185 140 128 141 161 205 232 234 169 100 107 171 189 196 214 220 223 229 248 256 251 273 266 128 108 169 230 257 273 274 266 267 264 197 158 203 200 196 217 195 181 177 172 168 158 154 154
221 212 197 193 206 200 184 191 192 190 209 216 219 230 265 283 140 80 325 272 282 211 206 195 215 223 196 193 187 178 196 199 182 188 177 167 177 195 163 179 198 156 149 183 193 193 202 240 237 134 132 149 137 179 195 210 228 222 214 232 244 228 252 252 149 101 179 235 294 309 285 272 269 261 215 147 176 159 138 195 174 186 184 170 166 161 165 166
216 209 198 189 195 195 186 189 194 208 218 220 230 227 216 130 154 137 271 270 273 217 201 200 209 213 197 190 181 183 203 208 190 184 176 173 159 147 179 183 170 160 191 201 204 216 211 184 121 145 166 181 166 172 187 204 225 216 212 225 240 229 227 243 307 65 216 207 241 282 284 270 257 252 230 126 144 176 165 175 176 184 180 165 164 172 176 169
209 204 197 190 194 189 178 187 206 217 212 220 237 227 210 192 149 147 274 280 253 222 227 202 196 212 192 161 167 175 194 209 213 169 174 180 157 140 174 160 175 205 199 188 203 235 233 124 126 150 173 190 186 188 193 205 225 220 213 219 235 245 237 232 157 319 264 237 190 239 273 268 219 235 234 145 176 192 175 190 193 182 178 185 184 179 176 166
205 198 196 198 199 182 173 195 210 210 207 225 236 213 204 208 161 143 225 294 257 197 141 186 183 186 171 152 157 143 132 219 157 109 167 184 167 139 170 145 189 230 177 152 197 250 234 134 132 156 173 184 196 218 198 190 222 244 210 209 226 242 242 218 194 212 260 270 99 219 264 269 242 228 198 151 209 205 185 204 201 188 189 197 199 186 177 169
204 195 196 205 206 186 179 199 191 190 203 232 228 202 201 200 180 192 232 279 262 170 131 190 193 166 158 158 162 146 179 202 99 102 157 178 171 124 208 178 162 216 141 137 217 229 163 153 155 164 164 175 203 223 180 175 215 238 92 188 207 218 221 214 205 216 253 332 105 201 243 276 267 247 141 142 233 225 206 210 203 196 199 199 204 197 185 177
204 195 196 209 212 193 185 182 176 187 202 211 208 198 195 188 187 203 234 253 272 108 115 164 102 99 121 141 161 137 302 79 124 157 62 71 162 127 226 199 174 164 154 185 217 216 144 176 186 175 172 195 207 197 160 179 212 285 74 120 166 193 211 202 207 224 253 317 241 196 173 265 264 222 121 148 245 245 219 199 194 195 196 196 201 198 189 181
204 196 194 204 212 199 193 191 180 200 213 213 217 196 182 178 188 176 281 238 243 93 85 123 128 72 103 140 137 88 66 23 89 158 87 101 109 59 225 205 149 147 148 234 232 351 56 204 205 183 193 207 172 48 150 189 204 127 118 99 92 83 84 137 212 218 186 254 245 193 169 236 273 215 178 182 242 245 215 181 187 190 189 191 194 192 186 176
203 197 193 197 204 199 197 203 196 201 214 220 221 179 165 166 179 168 215 229 192 103 66 131 156 138 144 151 166 166 112 34 83 115 114 129 88 39 5 99 97 139 144 289 267 2 80 41 302 209 214 178 108 61 28 108 129 140 138 109 98 92 87 107 178 173 233 249 235 192 182 211 263 226 195 205 223 203 153 160 180 178 181 188 189 185 180 172
203 197 195 197 200 195 193 203 200 193 207 207 180 157 155 143 121 194 212 242 352 147 135 144 152 156 161 160 167 174 133 67 151 154 145 148 139 121 152 159 129 142 192 246 238 182 145 193 213 188 113 99 109 88 46 45 119 160 156 141 138 134 143 183 157 166 243 248 202 171 185 207 235 223 195 203 96 130 151 168 179 177 180 184 181 177 174 173
205 199 198 200 200 193 193 201 195 193 204 176 157 150 155 126 213 225 208 103 156 188 156 147 171 179 176 165 133 153 145 138 168 169 155 159 173 172 186 188 163 169 220 220 206 165 208 209 170 105 233 175 147 117 82 83 198 202 170 164 190 209 188 216 204 193 241 240 91 56 159 211 240 243 258 279 108 141 119 86 182 181 177 175 173 172 170 172
209 202 201 203 200 194 195 198 193 196 192 164 153 149 147 174 216 223 200 166 195 171 108 109 133 163 168 163 156 155 138 140 164 174 145 151 186 192 213 227 178 204 231 191 191 191 214 211 156 170 208 198 186 177 172 176 186 193 181 178 196 198 202 224 210 227 258 234 81 89 169 225 255 245 261 283 84 90 70 41 325 179 169 167 166 169 170 173
212 206 205 206 204 199 194 190 190 194 183 160 158 157 159 211 225 209 199 198 182 54 73 110 114 130 166 176 167 162 155 165 164 162 156 162 188 202 210 219 210 229 67 155 193 195 221 255 174 178 166 170 192 208 183 140 165 193 191 194 206 195 208 226 211 235 266 103 99 127 179 212 211 154 288 327 57 63 76 76 21 126 154 153 155 165 172 177
213 208 207 206 205 202 193 184 185 189 177 156 169 174 181 220 225 206 199 179 145 98 82 110 124 139 183 205 244 191 209 208 164 159 173 178 192 200 196 199 196 186 162 184 199 181 227 271 160 155 104 169 186 205 78 117 162 194 115 209 231 215 177 224 275 36 24 350 187 187 228 242 214 131 116 112 179 158 125 115 130 149 153 151 160 174 179 182
209 207 207 203 202 200 191 183 182 183 174 155 184 194 205 222 211 188 187 159 150 141 125 132 149 159 190 183 196 210 247 79 160 175 197 195 223 209 186 195 190 189 188 184 182 172 211 286 103 78 3 179 188 156 109 154 176 148 171 200 215 327 91 138 249 81 65 272 230 176 225 247 230 229 156 147 186 173 167 163 157 162 163 166 178 183 185 187
202 203 205 203 201 196 189 185 180 176 172 173 197 204 216 224 189 154 172 155 139 139 143 181 188 175 186 187 194 192 184 144 166 189 187 178 228 197 186 223 192 194 207 205 214 204 203 258 141 151 182 155 344 107 101 1 109 135 188 190 137 16 345 218 246 206 194 253 250 185 218 211 190 212 150 157 192 194 196 182 158 166 177 184 191 187 187 183
198 197 206 210 202 191 188 186 177 171 174 198 205 213 218 216 186 166 166 135 135 154 182 212 193 179 185 186 185 174 177 177 167 185 185 180 226 179 174 202 192 196 208 205 307 214 201 236 181 140 185 113 89 191 139 60 287 133 206 169 130 223 208 180 225 237 210 240 256 197 215 218 204 196 166 182 198 197 193 176 170 185 189 192 195 190 185 174
194 188 219 212 199 188 186 184 175 168 189 204 205 216 216 206 186 169 161 150 143 168 200 214 198 196 192 178 162 162 182 184 161 175 199 188 208 175 174 189 193 197 196 174 175 179 175 234 223 82 2 118 144 203 190 179 177 27 185 176 187 261 218 180 200 229 219 235 251 210 203 212 208 193 178 189 197 189 180 178 192 196 192 194 194 188 183 175
182 184 230 197 190 184 180 178 173 173 204 206 211 217 210 201 190 170 178 192 188 185 208 216 203 201 190 170 153 160 186 195 171 185 209 184 186 191 188 191 174 180 178 166 192 179 144 225 226 116 80 176 183 206 204 185 171 171 183 184 188 197 244 256 232 208 232 240 238 247 253 210 180 184 185 189 194 183 176 184 194 193 192 196 194 185 180 176
171 209 205 177 179 177 172 172 176 189 204 213 219 224 215 189 190 189 192 205 225 235 222 223 211 203 173 171 185 161 175 196 187 196 216 194 203 220 193 190 162 139 135 145 209 203 171 200 202 158 176 204 210 249 259 215 183 184 190 187 188 181 166 212 223 186 201 250 232 252 270 228 148 147 189 183 193 181 182 189 188 187 192 193 189 185 182 178
182 222 170 166 171 167 162 182 191 183 212 218 217 221 188 134 195 195 178 191 225 232 195 231 220 211 187 179 182 161 165 187 192 200 221 207 213 220 186 180 161 148 146 155 196 184 128 147 198 187 197 214 284 13 336 305 303 258 238 205 193 190 182 202 221 177 162 227 259 310 276 275 108 104 104 48 322 318 236 213 200 191 187 186 185 186 186 183
193 203 153 162 167 162 158 204 186 184 221 220 222 223 176 185 209 194 183 193 202 195 201 220 217 217 214 181 163 171 179 192 192 195 211 214 213 215 161 160 156 156 162 158 157 135 92 163 199 208 205 89 24 33 325 343 316 246 247 221 204 213 205 213 233 150 185 198 165 210 247 242 117 123 106 336 301 281 257 232 215 195 175 181 186 184 186 183
174 160 148 166 168 163 164 200 185 196 214 213 221 217 205 216 207 197 200 202 199 195 206 215 206 212 215 166 163 183 187 200 203 196 200 205 201 149 135 164 165 168 186 180 157 161 165 175 181 195 204 186 203 212 212 208 204 228 231 191 203 217 202 172 75 166 238 198 171 215 246 199 136 119 77 337 298 272 259 245 228 208 176 177 181 183 184 177
151 81 354 178 171 167 183 197 186 196 204 205 213 211 212 222 205 204 205 201 203 202 204 212 193 181 178 160 178 191 194 208 213 200 204 205 191 53 123 181 179 182 223 47 130 159 172 172 178 191 204 204 208 215 211 178 168 224 212 178 200 205 193 189 174 213 230 173 171 217 242 145 114 276 264 245 274 271 255 234 229 222 189 178 181 182 181 178
179 168 137 213 190 186 197 193 189 195 196 201 209 210 211 214 209 207 203 201 205 201 198 193 159 171 180 183 193 204 208 218 224 183 201 193 174 29 41 180 182 186 219 103 144 158 153 190 199 208 217 212 206 210 155 130 155 199 198 185 198 202 197 198 213 220 205 150 204 221 220 219 203 204 228 216 204 243 245 217 219 223 205 190 187 183 179 182
206 191 168 181 235 231 216 196 194 198 197 198 200 202 208 212 209 189 202 206 198 192 201 161 162 189 197 191 199 207 202 205 205 187 191 167 126 55 44 135 152 132 128 163 178 162 148 216 213 219 231 234 60 73 164 154 180 201 199 196 199 196 195 200 216 217 156 170 239 198 176 222 211 182 203 205 191 221 228 207 212 213 199 184 176 178 179 184
200 191 183 168 144 213 226 211 195 201 202 197 200 205 207 210 208 199 200 201 179 184 197 207 199 205 202 191 195 197 182 190 209 200 169 136 138 126 78 76 178 174 136 161 225 150 178 226 212 211 234 246 61 118 202 176 191 205 200 201 196 190 193 198 217 217 170 213 247 144 165 222 207 167 195 197 187 203 199 197 206 188 170 163 166 178 183 190
194 112 163 98 60 196 221 211 194 203 203 193 202 213 208 211 213 204 178 139 178 195 198 207 211 206 199 192 188 190 186 190 206 202 171 161 167 153 143 156 186 196 149 157 214 174 190 228 180 178 232 245 208 188 195 173 191 211 205 205 197 193 193 194 212 215 205 229 244 137 190 237 195 152 194 196 190 200 172 163 181 167 165 166 173 184 190 194
198 255 147 125 97 159 20 126 186 203 205 195 201 210 207 215 216 207 180 170 194 202 200 212 215 200 194 197 194 202 202 195 201 196 167 163 176 177 186 184 159 157 172 171 178 199 213 209 134 134 228 237 209 196 205 193 200 223 227 218 197 181 182 198 217 214 212 236 241 201 238 252 178 148 192 196 174 174 169 181 185 179 171 167 176 189 193 197
142 324 329 145 166 199 201 144 177 202 207 200 202 200 201 215 215 206 202 205 202 196 200 216 220 209 202 208 210 220 221 213 212 198 174 175 187 187 189 175 150 150 170 178 165 170 201 206 120 156 217 228 192 186 200 171 125 257 248 225 184 163 178 202 216 211 203 222 232 232 245 250 201 148 170 182 164 180 196 194 186 181 170 171 183 191 193 195
99 348 350 126 156 210 203 150 169 197 206 211 207 197 200 213 209 200 208 267 63 115 213 220 220 215 211 214 219 227 228 212 201 182 170 168 155 143 148 157 158 158 164 175 176 173 185 190 164 181 207 226 169 181 179 126 146 253 248 211 181 183 196 204 215 217 208 208 218 225 235 246 232 151 160 181 191 204 208 194 180 178 174 181 191 188 190 193
Height
828 828 828 829 829 829 829 829 829 829 830 830 830 831 831 832 832 832 832 833 833 833 833 833 833 832 832 831 830 829 829 828 827 826 826 825 825 826 826 827 827 827 828 828 829 829 828 829 828 828 828 829 832 834 835 836 836 835 838 841 843 846 846 844 844 844 843 844 846 847 848 846 844 843 843 843 843 843 841 841 843 845 846 848 849 849 847 846
828 828 828 829 829 829 829 829 829 829 830 830 830 831 831 831 832 832 832 833 833 833 833 832 832 832 831 830 830 829 828 827 826 826 826 826 825 826 826 827 827 828 828 829 829 829 828 829 829 829 829 831 835 835 835 837 836 838 840 841 843 844 843 843 842 842 843 844 845 847 850 848 844 843 843 843 842 843 842 840 842 845 847 848 849 849 848 847
828 828 828 828 829 829 829 829 829 829 829 830 830 830 831 831 831 832 832 832 832 832 832 831 831 830 830 830 829 829 828 826 827 827 826 826 826 826 827 827 828 828 829 829 829 829 829 829 829 829 830 833 836 836 836 837 838 840 841 840 842 843 843 844 843 843 844 845 845 846 850 848 844 844 843 842 842 841 842 840 840 842 844 847 849 849 848 847
828 828 828 828 828 828 829 829 829 829 829 830 830 830 831 831 831 831 831 831 831 831 830 830 830 830 830 829 829 829 826 827 829 828 827 827 827 827 827 827 828 828 829 829 829 829 829 830 829 830 831 834 838 837 837 839 839 840 840 839 842 844 844 843 844 844 846 847 846 846 849 846 844 845 843 843 842 839 840 840 841 842 844 847 849 849 849 847
828 827 828 828 828 828 829 829 829 829 829 829 829 830 830 830 830 830 831 830 830 830 830 830 829 829 830 829 829 827 827 832 831 827 828 827 827 827 827 828 828 829 829 829 830 830 830 830 830 831 833 835 838 837 839 841 841 840 842 842 843 846 843 842 845 846 848 848 848 848 847 845 845 845 842 843 842 840 842 844 845 846 847 849 849 850 849 848
827 827 828 828 828 828 828 829 829 829 829 829 829 829 829 829 830 830 830 829 829 829 829 829 829 829 829 829 829 827 830 835 830 826 828 827 827 828 828 828 829 829 830 830 830 830 830 830 831 834 835 837 839 839 841 843 842 840 843 846 844 845 843 842 845 847 848 847 846 846 844 844 846 844 841 842 841 843 848 848 848 849 850 851 851 850 849 849
827 827 827 827 828 828 828 828 828 828 829 829 829 829 829 829 829 829 829 829 829 829 829 829 829 829 829 829 829 828 831 831 826 826 828 827 828 828 828 829 829 829 830 830 831 830 831 831 833 836 837 839 841 841 843 843 842 840 841 845 846 847 845 842 845 847 847 845 844 845 845 845 844 843 843 842 844 848 851 851 851 851 852 852 851 851 851 851
827 827 827 827 827 827 828 828 828 828 828 828 828 828 828 828 828 828 828 828 828 829 829 829 829 829 829 829 828 830 831 828 825 827 827 827 828 828 828 829 829 830 830 830 830 830 831 833 834 836 837 840 840 840 845 843 841 841 841 844 847 848 844 842 845 847 847 845 845 848 846 842 841 843 842 841 846 851 852 852 853 852 852 852 851 852 852 852
827 827 826 826 826 827 827 827 827 827 828 828 828 828 828 828 828 828 828 828 828 828 828 828 828 828 828 828 829 832 830 826 826 826 826 827 827 827 828 828 829 829 830 830 830 830 831 833 834 835 836 840 840 841 844 842 840 841 842 844 845 845 842 843 844 843 845 845 846 847 843 839 841 844 841 841 848 851 852 853 853 852 852 852 853 854 854 853
826 826 826 826 826 826 826 827 827 827 828 828 828 828 828 828 828 828 828 828 828 828 828 828 828 828 829 828 830 833 828 825 826 826 826 826 827 828 828 828 829 829 830 830 830 830 831 832 833 833 834 839 840 843 844 842 842 843 843 844 843 842 841 842 841 841 844 844 845 843 839 840 845 845 838 841 849 850 851 853 853 853 854 855 855 855 854 854
825 825 825 825 825 826 826 826 827 827 827 827 827 827 827 827 827 827 827 827 827 827 827 828 828 828 828 828 831 831 826 825 826 826 826 826 827 827 828 828 829 829 829 830 830 830 830 831 832 833 835 837 840 844 845 843 843 845 845 842 840 839 839 839 840 842 842 841 843 841 840 843 847 843 838 844 850 849 850 853 854 855 855 857 856 855 855 855
824 824 825 824 824 825 825 826 826 827 827 827 827 826 827 827 827 827 827 827 827 827 827 827 828 828 828 829 829 827 825 825 826 826 827 826 827 827 827 828 828 829 829 829 830 830 831 831 831 834 836 837 840 844 845 845 846 846 845 842 838 835 835 837 840 843 841 840 842 841 841 841 843 841 841 847 849 849 850 851 854 855 855 856 855 855 855 855
823 824 824 823 824 824 825 825 826 826 826 827 826 826 827 826 826 827 826 827 826 826 827 827 827 827 829 828 825 824 824 825 825 826 826 826 827 827 827 828 828 829 829 829 830 830 831 831 832 835 837 837 841 845 843 846 847 845 845 845 841 835 834 838 841 841 839 840 843 842 839 834 835 839 842 847 848 847 848 849 852 853 854 854 854 855 855 856
822 823 823 823 823 823 824 824 825 826 826 826 826 826 826 826 826 826 826 826 826 826 826 827 827 828 829 826 823 824 824 825 826 826 826 827 827 827 828 828 828 829 829 829 830 831 832 832 833 835 838 840 841 844 844 845 846 845 845 846 846 842 836 836 841 840 837 840 841 841 838 830 832 838 842 846 847 846 845 847 851 851 853 853 854 854 854 855
821 822 822 822 822 822 822 823 825 826 826 826 825 825 826 826 826 826 826 826 825 826 826 827 827 827 829 825 822 823 824 824 825 825 826 827 827 828 828 828 829 829 830 830 830 832 833 833 834 836 841 843 842 844 845 844 845 846 847 845 847 847 838 835 842 843 839 839 838 839 838 830 831 836 842 846 847 845 844 846 850 851 853 853 853 854 854 855
819 821 821 821 821 821 821 823 824 825 825 825 825 825 825 825 826 826 826 825 826 826 826 827 827 827 828 825 823 823 823 824 824 825 826 826 827 827 829 829 830 830 831 832 832 833 834 834 839 842 843 843 842 843 845 847 846 848 848 845 845 847 842 838 841 844 843 840 837 837 837 832 831 835 841 847 846 844 843 845 849 850 852 853 853 854 854 855
817 819 820 820 820 820 821 822 823 824 825 825 825 825 825 825 825 825 825 826 826 826 826 826 826 827 826 823 823 822 822 823 823 824 825 826 827 827 829 830 831 832 832 833 833 834 834 838 844 844 842 843 842 843 850 853 846 846 851 848 845 847 846 841 839 843 845 842 837 837 837 832 831 834 840 845 846 843 842 844 848 850 852 853 853 854 854 854
816 817 818 819 819 820 821 821 823 824 825 825 825 825 825 825 825 825 825 825 826 827 827 826 827 830 826 821 821 821 821 822 823 824 825 826 827 828 829 830 831 832 833 835 835 836 837 840 843 842 844 847 844 844 851 849 839 841 848 847 844 845 846 845 841 841 844 841 837 838 837 831 829 833 837 844 847 843 841 845 848 849 851 853 854 854 854 855
814 816 816 818 819 819 820 821 822 823 824 825 825 825 825 825 826 825 825 825 825 824 824 822 823 826 824 819 820 821 821 822 823 824 825 826 828 828 829 830 831 832 835 837 837 838 839 841 845 845 843 844 841 839 839 838 836 840 843 843 843 842 842 843 842 844 846 843 837 836 834 827 827 829 833 841 846 844 844 847 848 850 851 852 854 854 855 855
811 813 814 816 818 818 819 821 822 823 825 825 825 826 825 825 826 824 824 824 819 816 816 816 815 818 818 817 819 821 822 823 824 824 825 826 827 828 830 831 832 834 836 838 838 840 841 843 843 838 834 835 835 833 834 838 841 843 845 845 846 844 840 840 844 847 848 845 836 833 833 828 826 824 828 839 843 843 844 845 847 848 850 851 853 855 855 856
808 810 812 814 817 818 819 820 822 823 824 825 825 825 822 820 822 821 820 819 814 812 813 813 814 815 815 816 818 819 820 823 824 824 825 826 826 828 830 832 834 836 839 840 841 842 844 844 836 829 829 832 832 833 837 842 843 845 846 846 847 846 841 839 845 848 849 848 838 836 839 832 825 821 826 839 840 839 839 840 843 846 849 851 852 854 855 856
807 808 810 813 815 817 818 820 821 822 824 825 825 824 820 818 818 817 817 816 812 811 813 814 815 815 814 816 817 817 818 821 824 824 824 825 826 827 829 832 833 835 840 842 841 844 847 840 829 827 832 835 837 838 840 842 844 846 847 849 849 844 840 840 846 851 850 848 839 840 843 832 822 819 824 836 836 837 842 841 843 845 847 850 850 852 854 855
806 806 809 811 813 816 817 819 821 822 823 823 823 822 820 818 818 817 818 818 814 810 811 813 813 813 814 815 815 816 817 817 820 821 823 824 825 827 827 830 832 835 841 838 835 842 844 835 827 830 834 836 842 844 843 844 846 845 846 850 847 843 844 841 845 853 852 850 846 845 845 832 821 817 821 836 840 842 848 848 848 848 846 848 849 851 851 852
803 805 807 808 812 814 816 819 821 821 821 821 821 820 819 819 818 818 818 818 815 810 808 808 808 808 808 810 811 813 815 813 814 816 819 820 823 826 825 826 832 836 836 831 831 833 832 831 833 834 833 834 841 846 845 845 843 844 846 846 841 840 844 840 843 851 849 852 852 849 845 828 817 814 816 834 845 844 847 849 849 850 849 850 850 851 851 851
800 804 805 807 811 812 815 819 818 818 819 820 819 817 819 819 818 819 818 820 817 809 807 806 806 804 802 806 808 809 812 812 811 812 814 816 818 823 825 826 829 831 829 831 835 832 827 832 836 837 837 836 839 843 842 840 839 842 843 841 837 835 839 842 848 851 847 847 849 850 845 824 813 814 815 828 839 840 845 846 845 847 849 850 849 849 851 851
798 801 803 806 808 811 815 815 814 817 818 817 816 815 819 818 819 819 819 827 820 805 805 804 801 800 798 804 807 808 814 812 810 811 813 816 815 817 824 827 828 828 828 833 838 833 830 834 834 836 839 839 840 839 838 839 839 841 839 836 837 836 840 846 849 851 846 844 849 854 847 829 815 810 812 826 832 833 841 844 842 846 848 848 848 848 849 850
795 798 801 804 806 809 811 810 811 815 815 815 812 814 818 816 820 818 821 836 818 791 796 801 798 797 796 803 803 805 813 810 810 814 814 815 816 816 820 824 828 830 831 835 837 832 831 836 837 835 837 841 841 836 836 839 838 838 841 840 839 839 844 846 847 848 843 843 851 853 848 841 826 811 813 826 828 827 834 838 839 843 845 846 847 848 848 848
792 795 797 801 804 805 806 807 809 811 811 811 809 814 815 815 820 817 826 840 810 780 789 798 797 796 797 804 803 804 811 807 809 815 815 816 817 817 819 819 822 826 830 831 830 828 829 833 834 834 837 838 833 830 833 835 834 840 848 848 844 844 845 845 846 846 845 849 849 845 848 848 828 811 817 827 823 817 819 827 834 838 841 843 844 846 848 848
789 791 794 798 801 803 805 806 808 808 809 809 810 813 812 817 818 816 835 836 794 778 790 792 796 800 800 805 805 806 810 809 810 814 816 817 816 817 820 820 820 825 830 828 824 827 832 835 833 830 831 830 829 835 838 833 833 844 851 849 848 851 850 849 848 845 850 856 846 836 842 844 825 806 810 821 818 807 806 817 826 829 835 840 841 845 847 849
787 789 792 795 798 801 803 804 806 807 808 809 810 811 813 818 817 827 847 821 777 782 796 791 797 802 801 806 809 809 809 812 814 815 817 818 817 819 821 823 823 826 831 831 828 831 836 840 837 832 829 828 834 846 849 843 841 846 846 843 846 849 849 850 848 846 852 850 837 830 832 836 830 809 796 803 806 801 804 815 821 825 833 837 839 844 846 849
784 786 789 791 792 795 798 802 804 805 808 807 808 811 813 818 822 831 830 793 771 789 796 795 802 801 799 802 805 808 810 815 815 813 816 818 818 821 821 823 825 829 834 832 830 833 836 837 834 832 834 833 835 845 853 853 850 845 838 838 844 846 848 850 849 853 855 841 834 838 835 835 833 811 791 793 801 804 805 810 815 822 829 833 837 842 845 848
780 783 786 787 788 791 793 797 801 804 807 806 808 810 811 824 830 819 799 777 778 787 786 793 802 800 799 798 801 807 809 812 814 811 814 816 817 817 816 815 817 827 832 828 828 832 831 829 829 832 837 835 831 838 849 853 850 843 836 839 845 847 851 851 848 852 847 836 841 848 843 838 826 804 791 791 800 808 810 813 815 817 824 830 835 840 843 847
776 779 782 783 785 786 788 794 800 804 805 805 809 807 811 825 816 793 782 776 778 782 782 791 798 798 799 797 801 807 806 809 812 813 814 815 816 815 813 812 813 816 820 821 827 830 827 826 829 831 831 829 824 826 835 842 844 839 832 835 839 845 855 853 848 849 841 836 845 847 843 837 818 800 795 798 806 815 820 824 823 820 823 828 833 839 842 846
772 775 777 779 782 783 785 791 796 800 803 805 808 809 816 816 790 773 777 775 777 785 788 791 797 800 799 798 801 803 804 810 811 812 816 816 817 815 813 814 814 813 815 821 824 825 823 818 819 822 821 820 819 815 816 824 834 834 826 828 830 831 839 839 834 834 832 835 847 851 840 822 806 804 809 814 820 824 825 829 829 825 826 828 833 839 842 845
767 770 773 775 777 779 782 787 791 797 801 803 806 808 808 795 772 767 772 770 778 789 791 792 795 799 799 801 804 801 798 805 810 812 814 812 811 809 806 807 812 812 813 817 818 821 822 811 809 819 819 816 816 814 814 820 830 834 830 831 830 821 822 834 839 838 838 838 840 843 830 805 797 806 817 823 823 824 826 829 830 828 827 830 834 838 840 843
764 766 768 768 770 772 777 782 787 792 796 800 804 800 787 769 760 764 764 763 774 783 790 794 793 795 799 800 804 804 799 801 808 811 810 811 808 805 803 800 803 806 803 804 809 815 818 813 815 824 821 820 820 816 818 819 822 833 835 832 829 823 822 835 848 853 853 838 823 822 818 804 800 802 812 821 817 818 824 826 827 828 829 831 832 834 837 839
759 761 762 760 762 766 771 777 781 787 793 795 794 784 769 758 755 759 758 758 765 772 779 785 783 785 792 794 797 802 801 801 807 806 806 810 803 797 803 798 794 798 792 791 799 801 804 809 818 822 818 824 829 822 820 821 820 828 831 823 824 829 826 826 833 840 844 833 815 812 809 801 799 798 804 812 811 811 816 820 826 829 829 830 829 830 833 835
752 756 756 753 756 760 766 773 774 780 788 788 783 771 760 757 755 754 755 757 761 766 770 772 772 773 779 784 787 795 797 796 803 804 800 804 793 783 792 794 790 791 787 788 796 797 798 803 815 825 822 824 830 823 820 824 823 823 822 816 819 826 825 826 829 829 831 827 814 811 810 801 793 789 791 796 798 800 806 816 825 826 827 827 825 826 829 832
748 753 749 743 750 756 760 767 770 775 781 780 777 765 752 751 753 752 754 755 758 762 763 761 764 768 771 774 777 787 793 790 796 798 791 793 788 778 780 782 783 787 786 790 796 797 799 799 808 825 826 823 825 821 816 819 824 826 822 818 819 819 816 818 821 816 816 817 810 810 812 800 783 777 776 779 782 786 796 809 816 817 820 821 819 822 826 829
742 746 737 733 744 752 756 763 767 770 771 768 767 758 748 748 752 752 752 752 754 757 757 755 759 765 769 772 772 778 785 785 788 789 783 782 781 778 777 774 778 787 788 791 795 796 801 800 803 821 830 823 816 811 803 802 811 819 817 816 819 819 817 817 814 810 810 810 806 807 802 785 775 774 769 769 773 777 786 797 804 810 813 815 816 818 821 826
733 735 727 726 737 746 754 760 760 761 763 761 757 752 749 749 750 753 753 753 753 753 753 754 754 757 765 770 771 773 780 783 784 783 779 777 773 771 771 768 772 784 791 798 797 793 797 800 801 814 823 813 804 804 803 799 799 802 801 802 803 807 814 816 812 811 812 806 800 804 797 777 774 782 778 775 779 782 786 792 798 804 808 811 814 816 818 822
727 724 717 720 729 738 749 753 750 754 758 753 745 743 747 747 748 752 753 755 756 754 756 756 752 753 758 760 763 768 774 778 781 779 774 771 765 761 762 764 768 774 781 789 789 785 791 797 800 807 809 806 805 811 817 812 803 801 799 795 792 794 799 801 801 806 813 809 802 806 803 782 780 792 792 791 794 795 796 796 796 800 805 809 813 815 817 820
719 717 714 717 721 729 741 745 747 753 751 742 739 741 743 744 747 750 751 753 755 754 755 754 750 751 753 753 758 764 766 769 773 771 767 766 762 759 760 764 768 770 772 777 783 787 791 794 799 803 803 804 808 811 817 818 811 804 799 797 795 792 789 791 795 797 801 801 800 807 803 785 784 797 799 800 803 804 803 801 797 799 803 808 811 813 816 819
713 718 719 717 716 721 731 735 740 747 743 738 742 743 741 741 743 744 746 747 747 748 750 749 747 747 748 750 754 757 758 759 762 762 762 762 762 763 764 764 765 766 766 767 771 778 786 789 794 802 805 806 808 808 809 814 812 802 794 796 797 792 793 798 801 801 796 789 790 795 790 779 783 796 799 802 805 802 803 804 801 801 803 807 810 813 816 819
713 718 721 718 714 715 717 717 724 734 737 738 741 739 738 739 737 736 739 740 741 742 742 743 743 743 746 750 752 752 751 749 752 757 760 761 764 768 769 765 763 763 763 764 763 767 777 781 783 790 794 794 792 788 785 790 801 800 795 796 795 792 795 796 797 800 796 787 785 783 778 778 787 792 792 797 800 796 797 804 805 804 805 807 809 812 815 818
711 715 720 719 714 711 709 708 714 723 729 734 735 732 732 733 732 732 735 736 738 739 738 739 741 743 747 749 749 751 750 747 752 757 758 759 764 771 772 769 768 767 767 769 766 766 774 777 773 771 769 765 765 765 765 771 784 790 790 791 791 790 791 792 793 792 788 789 785 773 770 780 789 788 786 790 794 792 792 800 805 805 805 807 808 811 814 816
706 708 713 714 712 712 710 710 713 716 718 723 725 722 724 727 729 734 735 732 733 736 737 739 739 739 742 744 746 748 748 750 755 755 755 759 766 774 775 772 771 772 771 770 768 768 773 773 767 764 761 758 762 766 766 767 770 774 779 783 786 788 789 792 789 779 780 789 781 766 768 777 780 783 782 784 790 791 790 796 799 799 802 806 808 810 813 815
704 703 705 705 707 709 709 707 708 709 711 717 718 717 719 723 725 729 731 729 730 732 736 739 736 731 731 735 740 745 749 752 754 752 754 760 766 772 775 773 773 774 772 772 771 770 770 766 763 766 765 763 769 773 770 767 765 767 770 773 779 784 787 788 784 776 778 781 770 765 771 770 770 778 781 780 785 785 784 788 791 794 799 804 808 810 811 813
704 703 704 706 706 706 706 705 705 707 709 713 716 715 716 719 718 719 724 729 732 730 729 731 730 728 730 732 734 739 743 744 746 747 750 756 761 766 769 769 772 775 772 771 773 773 769 764 765 769 768 766 771 775 774 772 770 769 770 770 772 776 778 780 779 776 777 772 765 773 778 769 768 776 777 777 780 779 781 786 790 793 798 803 806 807 808 809
703 702 702 705 707 708 708 706 706 707 707 710 713 714 715 716 715 715 719 723 726 726 725 723 722 724 728 731 731 732 730 727 730 737 742 749 755 759 759 758 765 775 774 770 773 774 769 766 767 772 773 771 773 776 777 774 771 770 771 769 771 775 779 782 779 776 778 774 769 779 783 773 769 773 774 776 780 783 784 786 788 791 796 800 803 804 804 805
704 703 700 701 707 711 710 708 707 706 705 707 709 711 714 716 714 714 717 719 718 720 722 719 718 721 726 729 729 726 722 720 724 729 733 737 741 744 746 749 757 768 772 771 771 772 773 774 775 777 774 768 773 778 777 777 781 779 771 767 774 779 778 778 775 771 773 773 772 778 778 768 765 771 777 780 782 782 781 781 785 789 793 797 799 799 800 802
703 703 700 699 707 715 714 712 710 707 706 706 705 706 711 713 712 714 719 723 723 723 723 719 718 722 726 726 725 722 720 724 729 732 734 734 735 737 741 745 748 755 763 770 771 771 774 774 774 774 767 767 780 785 781 786 788 774 758 755 765 772 770 768 768 764 766 769 770 771 767 761 764 771 776 781 783 780 777 778 781 785 790 794 794 794 796 798